Location: Harburg
(48.7667°N, 10.6667°E)
Time: 06:30:01
(UTC+00:00)

Lacrosse 4 Rocket - Pass Details

Date: 18 September 2020
Orbit: 543 x 615 km, 68.0° (Epoch: 27 October)

Event Time Altitude Azimuth Distance (km) Brightness Sun altitude
Rises 20:58:36 0° 329° (NNW) 2,717 5.9 -32.2°
Reaches altitude 10° 21:00:50 10° 334° (NNW) 1,823 4.8 -32.4°
Enters shadow 21:02:07 19° 340° (NNW) 1,333 3.9 -32.6°
